When you browse on this site, cookies collect data to enhance your experience and personalize the content and advertising you see.
Visit our Privacy Policy to learn more. By continuing to use the site, you agree to this use of cookies and data.
  • In United Kingdom
  • List of Countries
  • For 7 days
  • Water Temperature
  • Satellite Maps
  • Weather Map
  • Weather Widgets
  • user-avatar
    Login

    Hourly Weather Bruges

    Today, 15 July, Monday

    Time Temperature Precipitation Wind Pressure Humidity
    00:00 +15°C° 0 mm 4 mps 765 mmHg 77%
    01:00 +14°C° 0 mm 4 mps 765 mmHg 78%
    02:00 +14°C° 0 mm 4 mps 765 mmHg 79%
    03:00 +14°C° 0 mm 4 mps 764 mmHg 80%
    04:00 +14°C° 0 mm 4 mps 764 mmHg 79%
    05:00 +16°C° 0 mm 3 mps 765 mmHg 78%
    06:00 +15°C° 0 mm 4 mps 765 mmHg 79%
    07:00 +15°C° 0 mm 4 mps 765 mmHg 77%
    08:00 +15°C° 0 mm 4 mps 765 mmHg 76%
    09:00 +15°C° 0 mm 4 mps 765 mmHg 74%
    10:00 +17°C° 0 mm 4 mps 765 mmHg 70%
    11:00 +18°C° 0 mm 4 mps 765 mmHg 66%
    12:00 +18°C° 0 mm 4 mps 765 mmHg 62%
    13:00 +18°C° 0 mm 4 mps 765 mmHg 64%
    14:00 +17°C° 0 mm 5 mps 765 mmHg 65%
    15:00 +17°C° 0 mm 5 mps 765 mmHg 67%
    16:00 +17°C° 0 mm 5 mps 764 mmHg 68%
    17:00 +16°C° 0 mm 5 mps 764 mmHg 70%
    18:00 +16°C° 0 mm 5 mps 764 mmHg 71%
    19:00 +15°C° 0 mm 4 mps 764 mmHg 72%
    20:00 +16°C° 0 mm 3 mps 764 mmHg 73%
    21:00 +16°C° 0 mm 3 mps 764 mmHg 74%
    22:00 +16°C° 0 mm 2 mps 764 mmHg 74%
    23:00 +16°C° 0 mm 2 mps 764 mmHg 73%

    Tomorrow, 16 July, Tuesday

    Time Temperature Precipitation Wind Pressure Humidity
    00:00 +16°C° 0 mm 1 mps 765 mmHg 73%
    01:00 +15°C° 0 mm 1 mps 764 mmHg 73%
    02:00 +15°C° 0 mm 1 mps 764 mmHg 73%
    03:00 +15°C° 0 mm 1 mps 764 mmHg 73%
    04:00 +15°C° 0 mm 1 mps 764 mmHg 73%
    05:00 +16°C° 0 mm 2 mps 764 mmHg 73%
    06:00 +16°C° 0 mm 2 mps 764 mmHg 73%
    07:00 +16°C° 0 mm 2 mps 764 mmHg 71%
    08:00 +17°C° 0 mm 2 mps 764 mmHg 69%
    09:00 +18°C° 0 mm 3 mps 764 mmHg 67%
    10:00 +18°C° 0 mm 3 mps 764 mmHg 66%
    11:00 +19°C° 0 mm 3 mps 764 mmHg 65%
    12:00 +19°C° 0 mm 3 mps 763 mmHg 64%
    13:00 +20°C° 0 mm 3 mps 763 mmHg 63%
    14:00 +20°C° 0 mm 3 mps 763 mmHg 62%
    15:00 +20°C° 0 mm 3 mps 763 mmHg 61%
    16:00 +20°C° 0 mm 3 mps 763 mmHg 64%
    17:00 +19°C° 0 mm 2 mps 762 mmHg 67%
    18:00 +19°C° 0 mm 2 mps 762 mmHg 69%
    19:00 +17°C° 0 mm 2 mps 762 mmHg 76%
    20:00 +16°C° 0 mm 1 mps 762 mmHg 82%
    21:00 +14°C° 0 mm 1 mps 762 mmHg 88%
    22:00 +14°C° 0 mm 1 mps 762 mmHg 89%
    23:00 +14°C° 0 mm 1 mps 762 mmHg 89%

    Day after tomorrow, 17 July, Wednesday

    Time Temperature Precipitation Wind Pressure Humidity
    00:00 +14°C° 0 mm 1 mps 762 mmHg 89%
    01:00 +13°C° 0 mm 1 mps 762 mmHg 90%
    02:00 +13°C° 0 mm 1 mps 761 mmHg 90%
    03:00 +13°C° 0 mm 1 mps 761 mmHg 91%
    04:00 +14°C° 0 mm 1 mps 761 mmHg 88%
    05:00 +15°C° 0 mm 1 mps 761 mmHg 85%
    06:00 +16°C° 0 mm 1 mps 761 mmHg 82%
    07:00 +18°C° 0 mm 1 mps 761 mmHg 74%
    08:00 +20°C° 0 mm 1 mps 761 mmHg 66%
    09:00 +22°C° 0 mm 1 mps 761 mmHg 58%
    10:00 +23°C° 0 mm 1 mps 760 mmHg 55%
    11:00 +24°C° 0 mm 1 mps 760 mmHg 52%
    12:00 +25°C° 0 mm 2 mps 760 mmHg 50%
    13:00 +25°C° 0 mm 2 mps 760 mmHg 51%
    14:00 +25°C° 0 mm 2 mps 760 mmHg 52%
    15:00 +24°C° 0 mm 3 mps 759 mmHg 54%
    16:00 +24°C° 0 mm 2 mps 759 mmHg 57%
    17:00 +23°C° 0 mm 2 mps 759 mmHg 61%
    18:00 +23°C° 0 mm 2 mps 759 mmHg 65%
    19:00 +20°C° 0 mm 2 mps 759 mmHg 70%
    20:00 +19°C° 0 mm 2 mps 759 mmHg 74%
    21:00 +18°C° 0 mm 2 mps 759 mmHg 79%
    22:00 +17°C° 0 mm 2 mps 759 mmHg 79%
    23:00 +17°C° 0 mm 3 mps 758 mmHg 79%

    18 July, Thursday

    Time Temperature Precipitation Wind Pressure Humidity
    00:00 +16°C° 0 mm 3 mps 758 mmHg 79%
    01:00 +16°C° 0 mm 3 mps 758 mmHg 81%
    02:00 +14°C° 0 mm 3 mps 758 mmHg 82%
    03:00 +14°C° 0 mm 3 mps 758 mmHg 84%
    04:00 +14°C° 0 mm 3 mps 758 mmHg 85%
    05:00 +16°C° 0 mm 3 mps 757 mmHg 86%
    06:00 +16°C° 0 mm 3 mps 757 mmHg 87%
    07:00 +17°C° 0 mm 4 mps 757 mmHg 84%
    08:00 +18°C° 0 mm 4 mps 757 mmHg 81%
    09:00 +19°C° 0 mm 4 mps 757 mmHg 78%
    10:00 +20°C° 0 mm 5 mps 757 mmHg 73%
    11:00 +21°C° 0 mm 6 mps 757 mmHg 68%
    12:00 +22°C° 0 mm 6 mps 757 mmHg 64%
    13:00 +22°C° 0 mm 6 mps 757 mmHg 64%
    14:00 +22°C° 0 mm 6 mps 757 mmHg 64%
    15:00 +22°C° 0 mm 6 mps 756 mmHg 65%
    16:00 +21°C° 0.1 mm 6 mps 756 mmHg 70%
    17:00 +20°C° 0.1 mm 6 mps 756 mmHg 76%
    18:00 +19°C° 0.1 mm 6 mps 756 mmHg 82%
    19:00 +19°C° 0 mm 6 mps 757 mmHg 84%
    20:00 +17°C° 0 mm 6 mps 757 mmHg 86%
    21:00 +16°C° 0 mm 6 mps 757 mmHg 88%
    22:00 +16°C° 0 mm 6 mps 757 mmHg 89%
    23:00 +15°C° 0 mm 6 mps 757 mmHg 89%

    19 July, Friday

    Time Temperature Precipitation Wind Pressure Humidity
    00:00 +15°C° 0 mm 6 mps 757 mmHg 90%
    01:00 +15°C° 0 mm 5 mps 757 mmHg 90%
    02:00 +14°C° 0 mm 4 mps 758 mmHg 90%
    03:00 +14°C° 0 mm 4 mps 758 mmHg 91%
    04:00 +15°C° 0 mm 4 mps 758 mmHg 87%
    05:00 +17°C° 0 mm 3 mps 758 mmHg 83%
    06:00 +17°C° 0 mm 3 mps 759 mmHg 80%
    07:00 +18°C° 0 mm 3 mps 759 mmHg 73%
    08:00 +19°C° 0 mm 4 mps 759 mmHg 67%
    09:00 +21°C° 0 mm 4 mps 760 mmHg 60%
    10:00 +21°C° 0 mm 4 mps 760 mmHg 58%
    11:00 +21°C° 0 mm 4 mps 760 mmHg 57%
    12:00 +22°C° 0 mm 4 mps 760 mmHg 55%
    13:00 +22°C° 0 mm 4 mps 760 mmHg 55%
    14:00 +21°C° 0 mm 4 mps 760 mmHg 56%
    15:00 +21°C° 0 mm 4 mps 760 mmHg 56%
    16:00 +21°C° 0 mm 3 mps 760 mmHg 58%
    17:00 +20°C° 0 mm 3 mps 760 mmHg 60%
    18:00 +20°C° 0 mm 3 mps 760 mmHg 62%
    19:00 +19°C° 0 mm 3 mps 760 mmHg 67%
    20:00 +17°C° 0 mm 2 mps 760 mmHg 71%
    21:00 +16°C° 0 mm 2 mps 760 mmHg 75%
    22:00 +16°C° 0 mm 2 mps 760 mmHg 75%
    23:00 +14°C° 0 mm 3 mps 760 mmHg 75%

    20 July, Saturday

    Time Temperature Precipitation Wind Pressure Humidity
    00:00 +14°C° 0 mm 3 mps 760 mmHg 74%
    01:00 +16°C° 0 mm 3 mps 760 mmHg 74%
    02:00 +15°C° 0 mm 4 mps 760 mmHg 73%
    03:00 +15°C° 0 mm 4 mps 759 mmHg 73%
    04:00 +15°C° 0.1 mm 4 mps 759 mmHg 75%
    05:00 +15°C° 0.1 mm 4 mps 759 mmHg 78%
    06:00 +17°C° 0.1 mm 3 mps 759 mmHg 81%
    07:00 +17°C° 0.1 mm 4 mps 759 mmHg 81%
    08:00 +17°C° 0.1 mm 4 mps 759 mmHg 81%
    09:00 +18°C° 0.1 mm 4 mps 760 mmHg 82%
    10:00 +20°C° 0 mm 5 mps 760 mmHg 76%
    11:00 +21°C° 0 mm 5 mps 760 mmHg 71%
    12:00 +23°C° 0 mm 5 mps 760 mmHg 66%
    13:00 +23°C° 0.2 mm 5 mps 760 mmHg 66%
    14:00 +25°C° 0.2 mm 5 mps 760 mmHg 66%
    15:00 +25°C° 0.2 mm 5 mps 760 mmHg 66%
    16:00 +23°C° 0.1 mm 5 mps 760 mmHg 68%
    17:00 +23°C° 0.1 mm 5 mps 760 mmHg 69%
    18:00 +23°C° 0.1 mm 5 mps 761 mmHg 71%
    19:00 +21°C° 0 mm 5 mps 761 mmHg 76%
    20:00 +19°C° 0 mm 4 mps 761 mmHg 82%
    21:00 +17°C° 0 mm 4 mps 762 mmHg 88%
    22:00 +17°C° 0 mm 3 mps 762 mmHg 89%
    23:00 +16°C° 0 mm 3 mps 762 mmHg 90%
    Show more